Location: Foko
(8.2000°N, 4.5667°E)
Time: 13:28:24
(UTC+00:00)

Daily predictions for brighter satellites

Satellite Brightness Start Highest point End
(mag) Time Altitude Azimuth Time Altitude Azimuth Time Altitude Azimuth
ARIANE 5 R/B 4.3 17:41:34 10° WSW 17:46:12 70° S 18:31:00 10° E
ARIANE 5 R/B 4.3 17:41:33 10° WSW 17:46:13 70° S 18:31:00 10° E
ARIANE 5 R/B 4.3 17:41:34 10° WSW 17:46:13 70° S 18:31:00 10° E
Cosmos 2263 Rocket 3.1 17:58:16 10° SSE 18:02:56 28° ESE 18:07:35 10° NE
TIMED 4.5 18:01:05 10° N 18:05:24 65° ENE 18:09:43 10° SSE
STARLINK-67 2.3 18:04:15 10° SSW 18:06:46 65° SE 18:09:16 10° NE
Cosmos 44 Rocket 3.4 18:02:16 10° SSW 18:07:13 87° WNW 18:12:04 10° NNE
Cosmos 1340 Rocket 3.8 18:03:19 10° NNW 18:07:13 54° W 18:11:10 10° S
GPS 2-12 Rocket1 4.0 18:05:47 10° NW 18:10:10 35° NNE 18:14:33 10° E
ATLAS CENTAUR Rocket 3.7 18:06:53 10° SSW 18:11:04 20° SSE 18:14:02 10° ESE
Okean-O 2.8 18:06:40 10° S 18:11:05 80° WSW 18:15:30 10° NNW
Cosmos 1980 4.0 18:07:53 10° N 18:13:15 43° ENE 18:18:34 10° SE
NOSS 0 Rocket 3.9 18:07:44 10° N 18:13:51 64° ENE 18:19:55 10° SSE
USA 238 DEB 3.7 18:08:35 10° S 18:15:04 59° ESE 18:21:34 10° NE
USA 238 3.7 18:08:43 10° S 18:15:11 58° ESE 18:21:40 10° NE
Delta 2 Rocket 4.2 18:13:13 10° SW 18:18:54 66° SE 18:23:57 12° ENE
Cosmos 2219 Rocket 3.4 18:13:39 10° NNW 18:19:01 46° WSW 18:24:23 10° S
GPS 2-18 Rocket1 4.2 18:16:01 10° NW 18:19:09 26° NNE 18:21:51 13° ENE
Cosmos 1939 Rocket 3.6 18:19:13 10° SE 18:22:35 29° ENE 18:25:57 10° NNE
Meteor 2-10 Rocket 3.5 18:24:44 10° N 18:29:41 55° E 18:34:34 10° SSE
H-2A R/B 3.6 18:27:25 10° NNW 18:30:40 23° NE 18:38:21 12° E
CSL-04 Debris 4.2 18:28:42 10° SSE 18:33:58 57° ENE 18:39:13 10° N
SWIFT 4.4 18:35:12 10° NW 18:37:39 15° N 18:39:32 12° NNE
CZ-4C R/B 3.2 18:36:11 10° NNW 18:44:29 89° ENE 18:52:55 10° SSE
GPS 2-14 Rocket1 3.1 18:43:19 10° W 18:47:08 49° NNW 18:48:56 27° NE
Cosmos 1727 Rocket 4.0 18:41:42 10° N 18:47:44 57° E 18:53:46 10° SSE
Centaur D-1AR AC-36 2.1 18:44:16 10° NW 18:48:14 36° NNE 18:49:17 28° ENE
Cosmos 1076 Rocket 3.5 18:47:10 10° S 18:51:20 58° E 18:54:36 16° NNE
YAOGAN 1 3.0 18:48:08 10° S 18:52:24 64° WSW 18:56:40 10° NNW
Cosmos 1371 Rocket 3.9 18:47:16 10° S 18:52:26 82° E 18:57:24 11° NNE
ADEOS Rocket 4.0 18:45:47 10° N 18:52:57 63° WNW 19:00:35 10° SSW
CZ-2D R/B 3.2 18:49:15 10° S 18:53:03 85° W 18:56:51 10° NNW
Delta 7925 Rocket 4.1 18:45:07 10° WNW 18:53:10 75° NNE 18:57:34 21° ESE
Timation 1 Rocket 4.4 18:47:35 10° SSW 18:53:32 81° WNW 18:59:30 10° NNE
CZ-4 R/B 3.0 18:52:26 10° SSW 18:56:02 35° W 18:59:42 10° NNW
CSL-04 Rocket 3.8 18:52:56 10° S 18:58:20 76° WSW 19:03:47 10° NNW
H-II Stage 2 1.4 18:54:25 10° WNW 18:58:40 64° SSW 18:59:15 43° SSE
Cosmos 2221 4.3 19:03:24 18° SE 19:03:24 18° SE 19:04:45 10° SSE
HJ-1C 4.0 18:59:15 10° SSE 19:01:36 38° SE 19:01:36 38° SE
Cosmos 1821 Rocket 4.4 19:00:44 10° S 19:07:05 68° W 19:13:24 10° N
NOSS 3-2 (C) 3.0 19:02:38 10° SSW 19:08:07 87° ESE 19:11:05 29° NNE
STARLINK-46 3.9 19:07:10 10° SW 19:08:54 36° SW 19:08:54 36° SW
ATLAS 3B R/B 3.0 19:05:37 10° S 19:12:06 42° ESE 19:13:33 38° E
Cosmos 2237 Rocket 3.4 19:09:00 10° NW 19:14:17 43° WSW 19:19:36 10° S
In-Cosmos 22 Rocket 4.2 19:10:45 10° S 19:16:35 86° E 19:20:38 20° N
Cosmos 1605 Rocket 4.2 19:12:03 10° SSE 19:17:57 47° E 19:18:41 45° ENE
Sakura Rocket 3.8 19:16:25 10° SW 19:19:05 32° S 19:19:05 32° S
Ariane Rocket 2.8 19:16:42 10° SSE 19:21:44 74° ENE 19:26:46 10° N
CENTAUR R/B 2.1 19:27:59 10° SSW 19:33:14 76° WNW 19:34:19 57° N
OAO 3 Copernicus 4.4 19:28:19 10° SW 19:32:59 65° S 19:32:59 65° S
ASTRO E2 4.0 19:30:59 10° W 19:34:37 36° SSW 19:34:40 35° SSW
Meteor 1-27 4.3 19:30:11 10° N 19:35:44 74° W 19:41:21 10° S
IRS-1A Rocket 4.3 19:31:17 10° SSE 19:37:11 87° WSW 19:42:59 10° NNW
SL-16 R/B 2.0 19:31:55 10° NNW 19:37:34 87° ENE 19:43:13 10° SSE
USA 234 3.4 19:37:26 10° SSE 19:43:58 72° SW 19:50:28 10° NW
Meteor 2-2 Rocket 4.4 19:46:21 64° SSE 19:46:21 64° SSE 19:51:17 10° S
SL-4 R/B 3.9 19:41:41 10° SSW 19:44:08 28° S 19:44:08 28° S
Cosmos 2263 Rocket 4.4 19:42:39 10° WSW 19:46:36 20° WNW 19:50:32 10° NNW
Cosmos 1844 Rocket 4.1 19:53:52 10° S 19:56:28 28° S 19:56:28 28° S
CZ-2C R/B 3.9 20:02:32 34° S 20:02:32 34° S 20:05:31 10° SSW
BLOCK DM-SL R/B 4.4 19:52:30 10° WSW 20:00:36 39° S 20:00:58 39° S
Centaur D-1AR AC-39 4.2 19:40:07 10° W 20:08:37 38° NNW 20:09:49 36° N
USA 215 4.3 20:34:50 40° WSW 20:34:50 40° WSW 20:38:51 10° SW
Ariane H10+ 4.4 20:47:15 10° WSW 20:48:54 25° WSW 20:48:54 25° WSW
